Regional Weather Roundup
Issued by NWS

Home | Current Version | Previous Version | Graphics & Text | Print | Product List | Glossary On
Versions: 1 2 3 4 5 6 7 8 9 10 11 12 13 14 15 16 17 18 19 20 21 22 23 24 25 26 27 28 29 30 31 32 33 34 35 36 37 38 39 40 41 42 43 44 45 46 47 48 49 50
000
ASUS43 KIND 192309
RWRIN

WEATHER ROUNDUP FOR INDIANA
NATIONAL WEATHER SERVICE INDIANAPOLIS IN
700 PM EDT THU APR 19 2018

NOTE: "FAIR" INDICATES FEW OR NO CLOUDS BELOW 12,000 FEET WITH NO
SIGNIFICANT WEATHER AND/OR OBSTRUCTIONS TO VISIBILITY.

* - STATION DOES NOT REPORT WEATHER SUCH AS PRECIPITATION OR FOG.

+ - STATION NOT QUALITY CONTROLLED BY THE NATIONAL WEATHER SERVICE.
    USE DATA WITH CAUTION...ESPECIALLY DEWPOINT AND RELATIVE
    HUMIDITY OBSERVATIONS.

INZ001>003-010>013-019-020-200000-
NORTHWEST INDIANA

CITY           SKY/WX    TMP DP  RH WIND       PRES   REMARKS
GARY /AIRPORT/ SUNNY     45  25  45 N10       30.41S
KNOX *+        FAIR      43  23  45 NW16      30.38R
LA PORTE +     FAIR      42  18  38 N21G30    30.38R
MICHIGAN CITY+ FAIR      41  21  45 N9G17     30.40S
MONTICELLO +   FAIR      49  15  25 N16G24    30.36R
RENSSELAER +   FAIR      46  -9   9 N15       30.38R
VALPARAISO     FAIR      46  16  30 N13G22    30.39R

$$

LMZ046-743>745-200000-
SOUTHERN LAKE MICHIGAN

STATION/POSITION TIME  TEMP    WIND        PRES    WAVE
                       AIR SEA DIR/SP/G            HT
                 (UTC) (F)     (DEG/KT/KT) (MB)    (FT)
BURNS HARBOR     2240   40      30/  8/ 10 1030.1R
MICHIGAN CITY    2240   41     340/ 14/ 15   N/A

$$

INZ004-005-014>016-021>024-200000-
NORTH CENTRAL INDIANA

CITY           SKY/WX    TMP DP  RH WIND       PRES   REMARKS
ELKHART        FAIR      43  28  56 NW14G21   30.34R
GOSHEN         FAIR      44  29  55 NW21G29   30.32R
LOGANSPORT +   FAIR      48  23  37 NW14G22   30.35R
PERU/GRISSOM   FAIR      50  23  34 NW16G24   30.32R
ROCHESTER +    FAIR      50  25  37 NW14      30.34R
SOUTH BEND     FAIR      41  25  53 NW24      30.37R
WARSAW +       FAIR      45  30  57 NW15G22   30.32R

$$

INZ006>009-017-018-025>027-200000-
NORTHEAST INDIANA

CITY           SKY/WX    TMP DP  RH WIND       PRES   REMARKS
ANGOLA *+      FAIR      48  32  53 W14G21    30.27R
AUBURN +       FAIR      50  32  50 NW15      30.28R
FORT WAYNE     FAIR      51  32  48 NW17G24   30.28R
HUNTINGTON +   FAIR      49  29  44 NW12G18   30.29R
KENDALLVILLE + FAIR      48  26  42 NW10G20   30.28R

$$

INZ028-029-035-036-043>045-051>053-200000-
WEST CENTRAL INDIANA

CITY           SKY/WX    TMP DP  RH WIND       PRES   REMARKS
CRAWFORDSVL +  FAIR      51  25  37 NW14G20   30.35R
GREENCASTLE +  FAIR      54  25  32 N10       30.33F
LAFAYETTE      FAIR      50  20  30 N18G25    30.36R
TERRE HAUTE    FAIR      55  29  36 N9G20     30.34S

$$

INZ030>032-037>040-046>048-054>057-064-065-200000-
CENTRAL INDIANA

CITY           SKY/WX    TMP DP  RH WIND       PRES   REMARKS
COLUMBUS       SUNNY     57 N/A N/A NW14      30.31R
FISHERS *+     FAIR      52  32  46 NW16      30.32
FRANKFORT +    FAIR      54  28  36 N17G23    30.36R
GREENWOOD *+   FAIR      54  27  35 N9G20     30.31S
INDIANAPOLIS   FAIR      54  24  31 NW21G26   30.32R
-EAGLE CREEK   FAIR      54  25  32 N18       30.31R
KOKOMO +       FAIR      51  25  36 NW20G25   30.32R
MARION +       FAIR      51  26  37 NW17G23   30.31R
MT COMFORT *+  FAIR      52  32  46 N15       30.31R
SHELBYVILLE    FAIR      55  27  34 NW16      30.29R
ZIONSVILLE +   FAIR      51  27  40 NW16      30.33R

$$

INZ033-034-041-042-049-050-058-059-200000-
EAST CENTRAL INDIANA

CITY           SKY/WX    TMP DP  RH WIND       PRES   REMARKS
MUNCIE         FAIR      55  27  34 NW18      30.28R
RICHMOND +     FAIR      52  27  37 NW14G21   30.27S

$$

INZ060-061-067>069-081>083-085>088-200000-
SOUTHWEST INDIANA

CITY           SKY/WX    TMP DP  RH WIND       PRES   REMARKS
EVANSVILLE     FAIR      54  32  43 N10       30.35S
HUNTINGBURG +  FAIR      53  31  42 VRB7      30.33F
WASHINGTON +   FAIR      54  27  35 N10       30.33S

$$

INZ062-063-066-070>080-084-089>092-200000-
SOUTH CENTRAL AND SOUTHEAST INDIANA

CITY           SKY/WX    TMP DP  RH WIND       PRES   REMARKS
BATESVILLE +   SUNNY     54  28  37 MISG      30.28S
BEDFORD +      FAIR      54  23  30 MISG      30.31S
BLOOMINGTON    FAIR      54  30  40 NW8       30.31S
FRENCH LICK *+ FAIR      54  18  24 N6        30.32S
MADISON *+     FAIR      54  25  32 W8        30.32S
NORTH VERNON + FAIR      52  28  40 N12G17    30.31R
SEYMOUR +      FAIR      57  30  35 N12       30.31S

$$





USA.gov is the U.S. government's official web portal to all federal, state and local government web resources and services.